sat.trackr.live / text

‹ back to catalog

STARLINK-34042

NORAD 63838 · 2025-093C

PAYLOAD ACTIVE UNKNOWN

§ Identity

Operator
Country
US
Launch date
2025-05-07
Launch site
AFETR
Launch vehicle
Mass (kg)
RCS (m²)

Purposes: comms

External: N2YO · Heavens-Above · Gunter

§ Orbital elements

Epoch: 2026-09-20T17:14:41.917344Z

Period
94.27 min
Inclination
43.0016°
Eccentricity
0.0001284
Mean motion
15.27591326 rev/d
Perigee alt
482.1 km
Apogee alt
483.9 km
Semi-major
6,861.2 km
B*
5.1527e-4
RAAN
52.6433°
Arg perigee
269.7851°
Mean anomaly
90.2854°
Rev number
7,784

§ Raw data

STARLINK-340421 63838U 25093C   26263.71854071  .00013949  00000+0  51527-3 0  99972 63838  43.0016  52.6433 0001284 269.7851  90.2854 15.27591326 77845

JSON: /api/v1/satellites/63838 · /tle

For live sub-satellite position, see the globe view (requires WebGL).

§ Visibility from observer

Set your observer location to see the next 7 days of passes ≥ 10°. The values pass through the URL so the page stays shareable.

No JS? Fill the form by hand. The geolocation button needs JavaScript.